Ahmedabad, India

10:44 AM IST on March 30, 2017 (GMT +0530)
Ahmedabad

Weather History for VAAH - February, 2014

Change the Weather History Date:

Friday, February 28, 2014

  Actual Average Record
Temperature  
Mean Temperature 73 °F -  
Max Temperature 85 °F 92 °F 98 °F (1997)
Min Temperature 61 °F 66 °F 52 °F (2013)
Cooling Degree Days 8    
Growing Degree Days 23 (Base 50)    
Moisture  
Dew Point 41 °F    
Average Humidity 33    
Maximum Humidity 63    
Minimum Humidity 9    
Precipitation  
Precipitation 0.00 in 0.00 in - ()
Sea Level Pressure  
Sea Level Pressure 29.85 in    
Wind  
Wind Speed 5 mph ()    
Max Wind Speed 12 mph    
Max Gust Speed -    
Visibility 2.6 miles    
Events      
Averages and records for this station are not official NWS values.
T = Trace of Precipitation, MM = Missing Value Source: Averaged Metar Reports

Daily Weather History Graph

Daily Weather History Graph

Search for Another Location

Airport or City:

Trip Planner

Search our weather history database for the weather conditions in past years. The results will help you decide how hot, cold, wet, or windy it might be!

Date:

Astronomy

Feb. 28, 2014 Rise Set
Actual Time 7:02 AM IST 6:42 PM IST
Civil Twilight 6:39 AM IST 7:04 PM IST
Nautical Twilight 6:13 AM IST 7:31 PM IST
Astronomical Twilight 5:47 AM IST 7:57 PM IST
Moon 5:53 AM IST (2/28) 5:48 PM IST (2/28)
Length of Visible Light 12h 25m
Length of Day
11h 39m
Waning Crescent, 2% of the Moon is Illuminated
Feb 28
Waning Crescent
Mar 1
New
Mar 8
First Quarter
Mar 16
Full
Mar 24
Last Quarter

Hourly Weather History & Observations

Time (IST) Temp. Dew Point Humidity Pressure Visibility Wind Dir Wind Speed Gust Speed Precip Events Conditions
12:10 AM 69.8 °F 42.8 °F 38% 29.86 in 2.5 mi West 4.6 mph - N/A   Smoke
12:40 AM 69.8 °F 41.0 °F 35% 29.86 in 2.5 mi West 4.6 mph - N/A   Smoke
1:10 AM 69.8 °F 39.2 °F 33% 29.86 in 2.5 mi West 3.5 mph - N/A   Smoke
2:10 AM 69.8 °F 39.2 °F 33% 29.83 in 2.5 mi West 4.6 mph - N/A   Smoke
2:30 AM 67 °F 46 °F 36% 29.84 in 2 mi West 2.3 mph - -   Smoke
2:40 AM 69.8 °F 42.8 °F 38% 29.83 in 2.5 mi West 6.9 mph - N/A   Smoke
3:10 AM 68.0 °F 44.6 °F 43% 29.83 in 2.5 mi West 6.9 mph - N/A   Smoke
3:40 AM 66.2 °F 46.4 °F 49% 29.83 in 2.5 mi West 6.9 mph - N/A   Smoke
4:10 AM 66.2 °F 46.4 °F 49% 29.83 in 2.5 mi West 6.9 mph - N/A   Smoke
4:40 AM 64.4 °F 46.4 °F 52% 29.83 in 2.5 mi West 6.9 mph - N/A   Smoke
5:10 AM 64.4 °F 48.2 °F 56% 29.83 in 2.5 mi West 6.9 mph - N/A   Haze
5:30 AM 64 °F 51 °F 53% 29.84 in 2 mi WNW 2.3 mph - -   Smoke
5:40 AM 62.6 °F 46.4 °F 55% 29.83 in 2.5 mi West 3.5 mph - N/A   Haze
6:10 AM 62.6 °F 48.2 °F 59% 29.83 in 2.5 mi West 3.5 mph - N/A   Haze
7:10 AM 60.8 °F 48.2 °F 63% 29.86 in 1.9 mi West 4.6 mph - N/A   Haze
7:40 AM 62.6 °F 46.4 °F 55% 29.86 in 1.6 mi West 3.5 mph - N/A   Haze
8:10 AM 64.4 °F 46.4 °F 52% 29.89 in 1.6 mi WNW 4.6 mph - N/A   Smoke
8:30 AM 66 °F 49 °F 44% 29.90 in 2 mi WNW 2.3 mph - -  
8:40 AM 66.2 °F 46.4 °F 49% 29.89 in 1.6 mi WNW 4.6 mph - N/A   Smoke
9:40 AM 71.6 °F 46.4 °F 41% 29.92 in 1.9 mi West 5.8 mph - N/A   Smoke
10:10 AM 73.4 °F 48.2 °F 41% 29.92 in 2.2 mi WNW 5.8 mph - N/A   Smoke
10:40 AM 75.2 °F 46.4 °F 36% 29.92 in 2.5 mi West 4.6 mph - N/A   Smoke
11:10 AM 78.8 °F 46.4 °F 32% 29.92 in 2.5 mi West 4.6 mph - N/A   Smoke
11:30 AM 80 °F 49 °F 23% 29.92 in 2 mi WNW 2.3 mph - -   Smoke
12:40 PM 84.2 °F 41.0 °F 22% 29.86 in 3.7 mi North 6.9 mph - N/A   Unknown
1:10 PM 84.2 °F 35.6 °F 18% 29.86 in 3.7 mi NW 9.2 mph - N/A   Unknown
1:40 PM 84.2 °F 37.4 °F 19% 29.86 in 3.7 mi NW 9.2 mph - N/A   Unknown
2:10 PM 86.0 °F 33.8 °F 15% 29.83 in 3.7 mi NW 11.5 mph - N/A   Unknown
2:30 PM 84 °F 34 °F 9% 29.85 in 2 mi WNW 6.9 mph - -  
2:40 PM 84.2 °F 33.8 °F 16% 29.83 in 3.7 mi WNW 9.2 mph - N/A   Unknown
3:10 PM 84.2 °F 35.6 °F 18% 29.80 in 3.7 mi North 9.2 mph - N/A   Unknown
3:40 PM 84.2 °F 33.8 °F 16% 29.80 in 3.7 mi WNW 8.1 mph - N/A   Unknown
4:40 PM 84.2 °F 37.4 °F 19% 29.80 in 3.7 mi NW 9.2 mph - N/A   Unknown
5:10 PM 82.4 °F 39.2 °F 21% 29.80 in 3.7 mi WNW 11.5 mph - N/A   Unknown
5:30 PM 81 °F 38 °F 12% 29.83 in 2 mi WNW 3.5 mph - -  
5:40 PM 82.4 °F 37.4 °F 20% 29.80 in 3.7 mi NNW 6.9 mph - N/A   Unknown
6:10 PM 80.6 °F 39.2 °F 23% 29.83 in 3.7 mi WNW 6.9 mph - N/A   Unknown
7:10 PM 77.0 °F 39.2 °F 26% 29.83 in 2.5 mi NNW 4.6 mph - N/A   Smoke
7:40 PM 75.2 °F 39.2 °F 27% 29.83 in 2.5 mi NNW 3.5 mph - N/A   Smoke
8:10 PM 73.4 °F 39.2 °F 29% 29.86 in 2.5 mi North 3.5 mph - N/A   Smoke
8:30 PM 74 °F 40 °F 18% 29.86 in 2 mi NW 3.5 mph - -  
8:40 PM 71.6 °F 37.4 °F 29% 29.86 in 2.5 mi North 5.8 mph - N/A   Smoke
9:10 PM 71.6 °F 35.6 °F 27% 29.86 in 2.5 mi North 5.8 mph - N/A   Smoke
9:40 PM 69.8 °F 37.4 °F 31% 29.86 in 2.5 mi North 5.8 mph - N/A   Smoke
10:10 PM 69.8 °F 35.6 °F 28% 29.86 in 2.5 mi NNW 6.9 mph - N/A   Smoke
10:40 PM 69.8 °F 37.4 °F 31% 29.86 in 2.5 mi NNW 5.8 mph - N/A   Smoke
11:10 PM 68.0 °F 37.4 °F 33% 29.86 in 2.5 mi North 4.6 mph - N/A   Smoke
11:30 PM 70 °F 38 °F 20% 29.89 in 2 mi North 4.6 mph - -  
11:40 PM 68.0 °F 37.4 °F 33% 29.89 in 2.5 mi NNE 4.6 mph - N/A   Smoke